Content
SEND FEEDBACK

Daily
Averages
Monthly
Summary
French Polynesia

PAPEETE, FRENCH POLYNESIA


Home > Oceania > French Polynesia
Elevation: 7 feet     Latitude: 17 33S     Longitude: 149 36W

WEATHER
 
SELECT A DAY
Number of Records: 217,892;   Date Range: 6/30/96 - 12/27/14
 
SHARE

PRINT THIS DATA

[ ← Previous Day ]
WEATHER ALMANAC - JULY 4, 2013
[ Next Day → ]
[ °C ]   °F
Weather ElementAverageHighLow
Temperature74.8 °F82.4 °F (4:00 pm)69.8 °F (10:00 pm)
Dewpoint62.2 °F64.4 °F (2:30 pm)59 °F (6:30 am)
Humidity64 %78 % (10:00 pm)45 % (2:00 pm)
Barometer29.95 in30.02 in (11:00 pm)29.89 in (2:00 am)
Wind Speed11.3 mph26.8 mph (2:00 am)
Wind Gust26.5 mph (2:30 pm)
Weather ElementAverage
Visibility8.1 mi
Wind DirectionSSE (143.8 °)

Weather ElementTotal
Precipitation---
Cooling Degree Days11.1 (Base 65)
Growing Degree Days26.1 (Base 50)
Averaged from 53 records on July 4, 2013
WEATHER CONDITIONS BREAKOUT
WIND DIRECTION BREAKOUT
WEATHER BY HOUR - JULY 4, 2013
[ °C ]   °F
Local TimeTemperatureDewpointHumidityBarometerVisibilityWind DirectionWind SpeedGust SpeedPrecipitationEventsConditions
12:30 AM73.4 °F62.6 °F69 %29.92 in6.2 miSouth (190°)11.5 mphMostly Cloudy
1:00 AM73.4 °F62.6 °F69 %29.92 in6.2 miSouth (190°)10.4 mphScattered Clouds
1:30 AM71.6 °F62.6 °F73 %29.92 in6.2 miSouth (190°)10.4 mphPartly Cloudy
2:00 AM72.0 °F62.0 °F64 %29.91 in12.0 miSouth (190°)26.8 mphScattered Clouds
2:00 AM71.6 °F62.6 °F73 %29.89 in6.2 miSouth (190°)13.8 mphPartly Cloudy
2:30 AM71.6 °F62.6 °F73 %29.89 in6.2 miSouth (190°)12.7 mphPartly Cloudy
3:00 AM71.6 °F60.8 °F69 %29.89 in6.2 miSouth (180°)11.5 mphPartly Cloudy
3:30 AM71.6 °F60.8 °F69 %29.89 in6.2 miSouth (180°)11.5 mph
4:00 AM71.6 °F60.8 °F69 %29.89 in6.2 miSouth (180°)11.5 mph
4:30 AM71.6 °F60.8 °F69 %29.89 in6.2 miSouth (180°)11.5 mph
5:00 AM72.0 °F61.0 °F59 %29.91 in37.0 miSouth (190°)24.6 mphClear
5:00 AM71.6 °F60.8 °F69 %29.89 in6.2 miSouth (190°)12.7 mph
5:30 AM71.6 °F60.8 °F69 %29.92 in6.2 miSouth (190°)12.7 mph
6:00 AM71.6 °F60.8 °F69 %29.92 in6.2 miSouth (190°)13.8 mphPartly Cloudy
6:30 AM71.6 °F59.0 °F64 %29.92 in6.2 miSouth (190°)13.8 mphPartly Cloudy
7:00 AM73.4 °F59.0 °F61 %29.95 in6.2 miSouth (180°)13.8 mphPartly Cloudy
7:30 AM73.4 °F59.0 °F61 %29.95 in6.2 miSouth (180°)10.4 mphPartly Cloudy
8:00 AM74.0 °F60.0 °F52 %29.98 in19.0 miSouth (170°)10.4 mphPartly Cloudy
8:00 AM75.2 °F59.0 °F57 %29.98 in6.2 miSouth (170°)10.4 mphPartly Cloudy
8:30 AM75.2 °F60.8 °F61 %29.98 in6.2 miSouth (190°)15.0 mphPartly Cloudy
9:00 AM77.0 °F60.8 °F57 %29.98 in6.2 miSouth (190°)15.0 mphPartly Cloudy
9:30 AM77.0 °F62.6 °F61 %29.98 in6.2 miSouth (190°)18.4 mphPartly Cloudy
10:00 AM78.8 °F60.8 °F54 %29.98 in6.2 miSouth (190°)18.4 mphPartly Cloudy
11:00 AM79.0 °F62.0 °F46 %29.98 in19.0 miSouth (190°)19.6 mphScattered Clouds
11:00 AM78.8 °F62.6 °F57 %29.98 in6.2 miSouth (190°)19.6 mphPartly Cloudy
11:30 AM78.8 °F62.6 °F57 %29.98 in6.2 miSSW (200°)23.0 mphPartly Cloudy
12:00 PM78.8 °F60.8 °F54 %29.95 in6.2 miSouth (190°)20.7 mphPartly Cloudy
12:30 PM78.8 °F62.6 °F57 %29.95 in6.2 miSouth (190°)20.7 mphPartly Cloudy
1:00 PM78.8 °F62.6 °F57 %29.92 in6.2 miSSW (200°)23.0 mphPartly Cloudy
1:30 PM78.8 °F62.6 °F57 %29.92 in6.2 miSouth (190°)21.9 mphPartly Cloudy
2:00 PM80.0 °F62.0 °F45 %29.93 in19.0 miSSW (200°)19.6 mphScattered Clouds
2:00 PM80.6 °F62.6 °F54 %29.92 in6.2 miSSW (200°)19.6 mphPartly Cloudy
2:30 PM80.6 °F64.4 °F58 %29.92 in6.2 miVariable11.5 mph26.5 mphPartly Cloudy
3:00 PM80.6 °F64.4 °F58 %29.92 in6.2 miVariable2.3 mphPartly Cloudy
4:00 PM82.4 °F64.4 °F54 %29.92 in6.2 miNNE (30°)3.5 mphPartly Cloudy
4:30 PM80.6 °F64.4 °F58 %29.92 in6.2 miENE (60°)5.8 mphPartly Cloudy
5:00 PM79.0 °F63.0 °F49 %29.94 in19.0 miEast (80°)3.5 mphScattered Clouds
5:00 PM78.8 °F62.6 °F57 %29.92 in6.2 miVariable3.5 mphPartly Cloudy
5:30 PM77.0 °F64.4 °F65 %29.95 in6.2 miVariable3.5 mphPartly Cloudy
6:00 PM77.0 °F64.4 °F65 %29.95 in6.2 miVariable3.5 mphPartly Cloudy
6:30 PM77.0 °F64.4 °F65 %29.95 in6.2 miCalmPartly Cloudy
7:00 PM73.4 °F64.4 °F73 %29.98 in6.2 miSouth (180°)3.5 mphPartly Cloudy
7:30 PM73.4 °F64.4 °F73 %29.98 in6.2 miSouth (180°)4.6 mphPartly Cloudy
8:00 PM72.0 °F63.0 °F65 %30.00 in12.0 miSouth (180°)11.2 mphScattered Clouds
8:00 PM71.6 °F62.6 °F73 %29.98 in6.2 miSouth (180°)5.8 mphPartly Cloudy
8:30 PM71.6 °F62.6 °F73 %29.98 in6.2 miSouth (180°)6.9 mphPartly Cloudy
9:00 PM71.6 °F62.6 °F73 %30.01 in6.2 miSouth (180°)4.6 mphPartly Cloudy
9:30 PM71.6 °F62.6 °F73 %30.01 in6.2 miEast (100°)3.5 mphPartly Cloudy
10:00 PM69.8 °F62.6 °F78 %30.01 in6.2 miEast (100°)3.5 mphPartly Cloudy
10:30 PM69.8 °F62.6 °F78 %30.01 in6.2 miVariable2.3 mphPartly Cloudy
11:00 PM70.0 °F63.0 °F72 %30.02 in12.0 miSSE (150°)2.3 mphScattered Clouds
11:00 PM69.8 °F62.6 °F78 %30.01 in6.2 miVariable2.3 mphPartly Cloudy
11:30 PM69.8 °F62.6 °F78 %30.01 in6.2 miVariable3.5 mphPartly Cloudy
Hourly data recorded from NTAA, located miles away from Papeete, French Polynesia







STORIES FROM OUR PARTNERS